sat.trackr.live / text

‹ back to catalog

TRANSPORTER-15 OBJECT CY

NORAD 66760 · 2025-276CY

PAYLOAD ACTIVE UNKNOWN

§ Identity

Operator
Country
TBD
Launch date
2025-11-28
Launch site
AFWTR
Launch vehicle
Mass (kg)
RCS (m²)

External: N2YO · Heavens-Above · Gunter

§ Orbital elements

Epoch: 2026-09-20T22:23:38.355648Z

Period
94.67 min
Inclination
97.4107°
Eccentricity
0.0001143
Mean motion
15.20996057 rev/d
Perigee alt
502.0 km
Apogee alt
503.6 km
Semi-major
6,881.0 km
B*
1.3186e-4
RAAN
336.0963°
Arg perigee
73.9374°
Mean anomaly
286.1988°
Rev number
4,498

§ Raw data

TRANSPORTER-15 OBJECT CY1 66760U 25276CY  26263.93308282  .00002855  00000+0  13186-3 0  99922 66760  97.4107 336.0963 0001143  73.9374 286.1988 15.20996057 44988

JSON: /api/v1/satellites/66760 · /tle

For live sub-satellite position, see the globe view (requires WebGL).

§ Visibility from observer

Set your observer location to see the next 7 days of passes ≥ 10°. The values pass through the URL so the page stays shareable.

No JS? Fill the form by hand. The geolocation button needs JavaScript.